Location: State Camp
(41.2367°N, 77.7828°W)
Time: 08:21:44
(UTC-04:00)

ADEOS Rocket - Visible Passes

Search period start: 05 May 2016 00:00
Search period end: 15 May 2016 00:00
Orbit: 860 x 1306 km, 98.7° (Epoch: 04 May)

Date Brightness Start Highest point End Pass type
(mag) Time Alt. Az. Time Alt. Az. Time Alt. Az.
06 May 5.7 04:54:56 10° NE 05:00:04 21° E 05:04:51 10° SE visible
08 May 5.6 05:02:25 10° NE 05:07:56 24° E 05:13:01 10° SE visible
10 May 5.4 05:09:58 10° NE 05:15:47 27° E 05:21:06 10° SSE visible
11 May 6.2 04:25:34 10° ENE 04:25:58 10° E 04:26:22 10° E visible
12 May 5.1 05:17:34 10° NNE 05:23:37 31° E 05:29:07 10° SSE visible
13 May 5.9 04:31:25 10° ENE 04:33:52 12° E 04:36:14 10° ESE visible
